SCP
0 0 0 0 0 0 0 0 0 0 0 -0 -0 -0 -0 -0 0 -0 0 0 -0 -0 -0 -0 -0 -0 -0 0 0 0 -0 0 0 0 0 0 0 0 0 0 0 0 0 0
0 0 0 0 0 0 0 0 0 0 -0 -0 0 0 0 -0 -0 -0 0 0 -0 -0 -0 -0 -0 -0 -0 -0 -0 0 0 0 0 0 0 0 0 0 0 0 0 0 0 0
0 0 0 0 0 0 0 0 0 0 -0 0 0 0 -0 0 0 0 -0 -0 -0 0 0 0 0 0 0 0 0 0 0 0 0 0 0 0 0 0 0 0 0 0 0 0
0 0 0 0 0 0 0 0 0 0 0 0 0 0 0 0 0 0 0 0 0 0 0 0 0 0 0 0 0 0 0 0 0 0 0 0 0 0 0 0 0 0 0 0
0 0 0 0 0 0 0 0 0 0 0 0 0 0 0 0 0 0 0 0 0 0 0 0 0 0 0 0 0 0 0 0 0 0 0 0 0 0 0 0 0 0 0 0
0 0 0 0 0 0 0 0 0 0 0 0 0 0 0 0 0 0 0 0 0 0 0 0 0 0 0 0 0 0 0 0 0 0 0 0 0 0 0 0 0 0 0 0
0 0 0 0 0 0 0 0 0 0 0 0 0 0 0 0 0 0 0 0 0 0 0 0 0 0 0 0 0 0 0 0 0 0 0 0 0 0 0 0 0 0 0 0
0 0 0 0 0 0 0 0 0 0 0 0 0 0 0 0 0 0 0 0 0 0 0 0 0 0 0 0 0 0 0 0 0 0 0 0 0 0 0 0 0 0 0 0
0 0 0 -0 0 0 0 0 0 0 0 0 0 0 0 0 0 0 0 0 0 0 0 0 0 0 0 0 0 0 0 0 0 0 0 0 0 0 0 0 0 0 0 0
0 0 0 0 0 0 0 0 0 0 0 0 0 0 0 0 0 0 0 0 0 0 0 0 0 0 0 0 0 0 0 0 0 0 0 0 0 0 0 0 0 0 0 0
0 0 0 0 0 0 0 0 0 0 0 0 0 0 0 0 0 0 0 0 0 0 0 0 0 0 0 0 0 0 0 0 0 0 0 0 0 0 0 0 0 0 0 0
0 0 0 0 0 0 0 0 0 0 0 0 0 0 0 0 0 0 0 0 0 0 0 0 0 0 0 0 0 0 0 0 0 0 0 0 0 0 0 0 0 0 0 0
0 -0 -0 0 0 0 0 0 0 0 0 0 0 0 0 0 0 0 0 0 0 0 0 0 0 0 0 0 0 0 0 0 0 0 0 0 0 0 0 0 0 0 0 0
0 0 0 0 0 0 0 0 0 0 0 0 0 0 0 0 0 0 0 0 0 0 0 0 0 0 0 0 0 0 0 0 0 0 0 0 0 0 0 0 0 0 0 0
0 0 0 0 0 0 0 0 0 0 0 0 0 0 0 0 0 0 0 0 0 0 0 0 0 0 0 0 0 0 0 0 0 0 0 0 0 0 0 0 0 0 0 0
0 0 0 0 0 0 0 0 0 0 0 0 0 0 0 0 0 0 0 0 0 0 0 0 0 0 0 0 0 0 0 0 0 0 0 0 0 0 0 0 0 0 0 0
0 0 0 0 0 0 0 0 0 0 0 0 0 0 0 0 0 0 0 0 0 0 0 0 0 0 0 0 0 0 0 0 0 0 0 0 0 0 0 0 0 0 0 0
0 0 0 0 0 0 0 0 0 0 0 0 0 0 0 0 0 0 0 0 0 0 0 0 0 0 0 0 0 0 0 0 0 0 0 0 0 0 0 0 0 0 0 0
0 0 0 0 0 0 0 0 0 0 0 0 0 0 0 0 0 0 0 0 0 0 0 0 0 0 0 0 0 0 0 0 0 0 0 0 0 0 0 0 0 0 0 0
0 0 0 0 0 0 0 0 0 0 0 0 0 0 0 0 0 0 0 0 0 0 0 0 0 0 0 0 0 0 0 0 0 0 0 0 0 0 0 0 0 0 0 0
0 0 0 0 0 0 0 0 0 0 0 0 0 0 0 0 0 0 0 0 0 0 0 0 0 0 0 0 0 0 0 0 0 0 0 0 0 0 0 0 0 0 0 0
-0 0 0 0 0 0 0 0 0 0 0 0 0 0 0 0 0 0 0 0 0 0 0 0 0 0 0 0 0 0 0 0 0 0 0 0 0 0 0 0 0 0 0 0
-0 -0 0 0 0 0 0 0 0 0 0 0 0 0 0 0 0 0 0 0 0 0 0 0 0 0 0 0 -0 0 0 0 0 0 0 0 0 0 0 0 0 0 0 0
-0 -0 0 0 0 0 0 0 0 0 0 0 0 0 0 0 0 0 0 0 0 0 0 0 0 0 0 0 0 0 0 0 0 0 0 0 0 0 0 0 0 0 0 0
0 0 0 0 0 0 0 -0 0 0 0 0 0 0 0 0 0 0 0 0 0 0 0 0 0 0 0 0 0 0 0 0 0 0 0 0 0 0 0 0 0 0 0 0
0 0 0 0 0 0 0 0 0 0 0 0 0 0 0 0 0 0 0 0 0 0 0 0 0 0 0 0 0 0 0 0 0 0 0 0 0 0 0 0 0 0 0 0
0 0 0 0 0 0 0 0 0 0 0 0 0 0 0 0 0 0 0 0 0 0 0 0 0 0 0 0 0 0 0 0 -0 -0 0 0 0 -0 -0 -0 -0 -0 -0 -0
Wind_Speed_500mb
15 11 10 13 17 18 12 13 13 9 16 16 14 14 26 26 23 21 24 26 25 22 19 24 27 31 35 43 49 34 33 27 18 18 25 33 34 38 43 43 45 49 50 54
8 7 14 12 18 19 7 8 3 9 13 14 13 17 19 28 29 27 27 27 24 20 13 12 13 15 18 21 28 40 46 49 48 50 41 38 34 43 40 46 42 48 48 48
6 8 9 2 21 22 11 10 15 10 19 12 9 19 37 38 40 40 38 34 29 24 20 16 14 13 11 13 19 23 32 34 41 42 51 52 47 41 31 35 46 43 49 50
5 6 3 12 4 14 18 16 15 6 11 26 25 50 50 51 54 45 41 41 37 31 24 13 9 14 19 17 18 19 21 23 27 32 38 42 43 46 49 49 43 49 50 54
10 6 11 15 9 14 14 16 17 16 9 14 29 33 24 51 54 51 48 40 38 34 25 15 12 13 8 4 5 6 8 11 12 19 24 26 27 30 35 34 37 47 52 53
9 12 24 15 6 6 8 6 12 18 11 27 38 10 13 58 57 50 42 39 42 38 29 21 17 9 5 3 6 7 4 3 7 14 21 27 30 31 28 31 36 37 39 51
10 8 10 14 10 11 12 15 15 25 37 44 14 32 51 48 55 52 49 44 44 38 28 18 12 10 9 10 12 3 8 7 12 17 23 24 27 30 31 32 34 34 37 38
8 8 19 13 6 12 10 11 15 32 48 59 42 41 24 48 58 55 54 46 47 36 25 14 11 16 17 16 12 16 18 16 15 17 18 21 30 31 31 32 34 36 37 39
11 14 7 22 4 13 19 17 23 27 43 54 48 42 39 47 51 53 49 53 45 31 20 13 17 21 25 22 25 27 28 26 23 22 25 29 34 35 36 31 30 35 34 36
8 3 4 31 12 24 26 26 26 26 42 51 58 46 49 51 51 51 55 50 38 27 21 14 17 21 20 22 28 31 33 30 28 28 33 41 42 34 31 29 32 35 35 37
6 9 4 3 39 34 28 21 13 21 38 51 55 59 59 56 58 61 57 43 37 30 20 15 20 21 23 21 19 21 23 26 29 35 42 43 34 31 29 25 29 33 38 42
6 8 2 9 40 29 40 40 21 7 28 51 55 64 64 66 65 59 49 47 42 32 21 15 12 11 14 15 16 19 23 27 32 34 32 33 26 29 26 30 33 39 43 47
10 13 17 30 18 30 45 42 23 13 32 55 61 63 68 69 66 60 56 49 39 27 18 10 2 5 10 15 19 23 26 29 30 29 32 33 30 32 33 38 42 37 44 46
33 29 30 16 22 41 40 41 27 16 33 48 61 60 65 67 66 61 54 45 35 24 13 5 3 10 13 18 22 25 26 27 29 32 30 27 29 31 32 38 37 40 47 45
61 52 59 59 56 48 36 37 29 17 24 43 54 67 72 75 71 64 53 45 35 25 18 8 5 12 16 19 22 26 32 33 27 23 18 23 26 27 31 33 39 45 34 21
68 67 71 72 63 50 35 29 28 20 26 45 59 72 76 72 68 62 56 49 38 28 18 9 6 10 13 18 21 21 23 23 24 22 16 21 22 23 26 33 32 17 11 5
58 60 57 53 44 38 34 28 25 23 20 41 60 72 69 69 67 63 56 42 31 24 16 9 7 13 20 24 26 28 30 30 28 22 20 23 21 24 28 15 10 6 5 6
67 51 48 47 36 27 26 25 21 20 19 31 56 70 70 71 75 67 54 44 36 27 20 11 10 16 23 27 31 34 34 33 34 32 23 23 22 23 21 10 7 13 19 21
57 68 52 42 37 30 26 24 19 13 17 26 36 60 67 69 76 65 54 42 33 30 19 14 12 16 25 32 36 36 37 37 34 29 29 27 23 22 22 13 25 28 26 27
46 53 50 34 30 26 27 28 23 16 12 21 34 41 56 73 71 62 49 35 31 24 20 15 17 21 29 32 35 38 40 39 36 30 32 32 30 24 23 30 35 32 27 28
40 46 38 32 29 20 21 22 23 23 19 23 32 42 57 67 57 52 41 35 37 31 21 17 20 25 32 34 34 37 37 27 25 29 33 32 29 30 30 36 33 28 27 29
39 39 37 31 22 19 18 18 24 24 22 29 33 37 40 52 57 49 35 29 26 26 20 19 20 23 29 35 38 34 23 19 22 29 34 26 29 33 40 41 39 38 37 34
38 36 31 22 13 12 15 11 6 6 17 24 33 34 38 54 53 52 38 26 27 24 20 21 17 18 27 30 32 20 19 19 18 23 27 26 26 30 45 47 42 44 40 31
26 21 15 13 15 13 12 33 23 18 18 24 30 37 48 44 33 31 28 24 15 19 20 18 12 15 20 17 15 5 4 11 8 10 18 19 22 29 54 56 49 49 41 28
25 14 13 22 28 26 19 15 15 15 13 14 17 18 15 13 18 22 25 23 23 27 22 18 14 7 12 11 12 17 8 6 4 7 16 24 33 52 61 59 59 55 47 33
29 31 28 21 15 13 12 18 19 15 16 14 11 11 12 17 16 15 14 19 26 27 25 27 19 9 16 24 26 27 34 32 22 8 12 35 55 52 39 42 42 31 39 41
32 29 27 23 12 8 12 13 6 5 8 4 4 6 11 17 21 20 18 17 19 23 24 32 30 24 21 27 36 37 43 41 40 38 37 39 41 37 31 31 31 35 51 46
Wind_Direction_500mb
244 231 171 183 175 168 172 163 154 228 206 239 238 195 191 192 177 184 193 204 201 208 211 222 229 232 236 235 238 239 232 236 250 255 253 248 258 262 259 254 253 255 250 249
278 206 193 185 190 159 150 135 131 141 249 196 186 165 171 181 185 199 199 195 193 208 204 193 201 229 239 241 239 240 246 256 264 262 265 260 264 287 260 254 263 254 254 255
259 319 141 34 187 181 175 170 149 158 225 168 156 173 191 183 189 198 201 199 192 185 167 153 169 190 210 231 240 250 250 262 261 266 269 273 270 279 272 272 263 257 253 255
24 347 272 245 120 181 179 187 200 246 199 197 193 191 197 196 193 201 199 194 184 178 165 164 196 200 197 210 232 249 258 260 266 270 273 276 274 271 273 274 279 262 253 255
168 309 295 308 170 153 164 236 200 218 189 144 139 155 199 203 202 199 196 194 190 181 172 167 167 162 166 179 188 225 250 254 264 272 278 279 284 282 288 271 276 264 257 254
144 142 247 245 295 171 99 272 225 183 196 147 139 144 227 204 203 205 204 200 192 181 179 175 170 180 195 261 274 302 243 291 317 309 293 285 286 283 285 269 272 274 263 253
171 129 281 247 221 102 117 230 193 199 190 167 160 193 218 194 197 202 204 201 193 188 185 179 186 212 247 287 311 313 224 259 306 308 308 293 297 294 281 276 278 274 270 262
117 151 230 10 48 166 265 252 199 169 187 188 191 191 195 185 192 194 199 193 190 185 178 182 234 258 276 282 285 260 254 265 273 291 307 302 310 301 285 280 280 278 273 268
199 194 129 314 245 12 356 294 272 207 192 199 195 189 174 181 186 190 194 184 179 182 187 229 254 269 270 277 265 260 257 262 264 279 291 299 307 310 291 282 283 284 281 279
22 313 18 55 44 18 8 328 279 250 211 197 204 194 178 170 175 178 172 176 179 186 204 228 263 280 270 256 257 260 263 260 268 282 291 295 296 293 295 280 281 280 282 279
290 286 156 150 12 5 5 9 306 239 218 201 195 179 172 171 168 167 170 176 185 193 204 247 275 273 268 267 257 251 252 262 276 288 294 295 289 283 276 285 279 285 288 287
270 295 40 296 352 14 1 357 355 205 207 195 187 177 178 172 171 173 178 181 187 195 212 244 260 271 268 265 258 253 259 269 282 291 293 297 296 281 272 267 275 281 284 286
263 305 309 321 334 4 350 344 341 246 208 192 186 186 181 176 178 182 181 184 192 204 221 223 249 312 285 270 267 271 277 279 285 290 292 291 292 286 280 280 284 287 292 290
268 279 289 288 314 314 329 334 327 286 214 206 191 184 187 183 182 185 188 191 197 209 201 200 343 328 312 294 287 286 285 282 286 289 293 283 291 287 284 288 294 290 295 295
261 262 270 286 296 301 306 322 313 298 221 208 201 186 193 186 189 192 191 194 198 204 212 217 316 328 318 307 298 295 289 283 285 292 296 292 284 283 289 289 291 296 301 300
261 260 262 270 275 286 286 304 304 292 231 217 203 197 195 196 196 192 195 198 203 211 206 215 288 318 325 319 308 304 304 310 295 291 291 293 287 286 290 294 294 291 298 289
251 259 262 259 259 271 270 287 295 288 248 222 215 204 201 201 197 195 199 198 199 206 209 228 299 323 328 322 313 305 297 287 290 287 294 292 285 286 304 293 272 252 203 171
246 251 255 258 254 267 267 272 282 274 267 239 220 208 204 201 201 203 199 196 203 211 216 235 286 313 324 324 315 306 299 291 277 267 264 277 272 282 302 275 208 160 143 134
231 235 244 252 244 268 241 240 246 261 260 252 230 215 208 207 206 204 197 202 215 218 227 249 275 304 319 320 314 306 294 286 274 263 259 254 256 266 269 196 159 155 145 136
230 222 229 240 243 212 211 233 246 251 284 258 223 218 216 207 200 199 200 206 221 222 234 263 281 305 317 321 319 310 299 283 261 244 245 246 249 252 221 173 164 157 151 145
201 200 217 204 215 237 242 238 249 268 278 241 222 221 213 204 197 200 199 218 220 224 240 264 282 310 325 329 323 315 300 284 238 231 233 238 247 236 206 177 174 168 157 150
183 189 195 210 238 252 245 244 263 270 248 230 204 208 206 203 199 197 211 235 228 236 242 263 283 314 328 326 325 313 293 250 237 238 237 236 236 223 194 179 169 161 153 146
198 198 210 223 266 283 276 291 223 194 178 173 184 183 187 205 203 209 217 231 234 228 245 263 286 323 332 332 337 320 262 253 253 228 234 236 240 213 192 178 175 167 163 160
193 180 189 237 257 275 281 146 190 162 147 151 159 168 183 189 205 226 242 231 238 220 242 246 273 318 338 351 9 1 253 234 247 232 214 222 195 218 182 180 175 162 162 167
109 158 176 169 154 157 158 158 144 148 148 164 180 189 208 234 244 240 234 232 229 226 230 234 242 308 356 23 45 43 66 99 158 214 206 206 201 179 177 177 172 169 161 157
105 105 115 128 139 154 174 176 177 182 185 177 177 190 212 222 223 210 222 236 235 232 227 217 205 153 109 94 80 72 77 75 73 106 180 192 170 157 159 172 176 190 166 160
89 88 95 99 107 98 74 72 85 200 192 164 121 227 266 268 264 265 252 243 238 242 235 214 199 173 144 114 104 101 96 89 87 108 122 142 137 126 128 162 180 177 177 186
Wind_Speed_850mb
15 11 10 13 17 18 12 13 13 9 16 16 14 14 26 26 23 21 24 26 25 22 19 24 27 31 35 43 49 34 33 27 18 18 25 33 34 38 43 43 45 49 50 54
8 7 14 12 18 19 7 8 3 9 13 14 13 17 19 28 29 27 27 27 24 20 13 12 13 15 18 21 28 40 46 49 48 50 41 38 34 43 40 46 42 48 48 48
6 8 9 2 21 22 11 10 15 10 19 12 9 19 37 38 40 40 38 34 29 24 20 16 14 13 11 13 19 23 32 34 41 42 51 52 47 41 31 35 46 43 49 50
5 6 3 12 4 14 18 16 15 6 11 26 25 50 50 51 54 45 41 41 37 31 24 13 9 14 19 17 18 19 21 23 27 32 38 42 43 46 49 49 43 49 50 54
10 6 11 15 9 14 14 16 17 16 9 14 29 33 24 51 54 51 48 40 38 34 25 15 12 13 8 4 5 6 8 11 12 19 24 26 27 30 35 34 37 47 52 53
9 12 24 15 6 6 8 6 12 18 11 27 38 10 13 58 57 50 42 39 42 38 29 21 17 9 5 3 6 7 4 3 7 14 21 27 30 31 28 31 36 37 39 51
10 8 10 14 10 11 12 15 15 25 37 44 14 32 51 48 55 52 49 44 44 38 28 18 12 10 9 10 12 3 8 7 12 17 23 24 27 30 31 32 34 34 37 38
8 8 19 13 6 12 10 11 15 32 48 59 42 41 24 48 58 55 54 46 47 36 25 14 11 16 17 16 12 16 18 16 15 17 18 21 30 31 31 32 34 36 37 39
11 14 7 22 4 13 19 17 23 27 43 54 48 42 39 47 51 53 49 53 45 31 20 13 17 21 25 22 25 27 28 26 23 22 25 29 34 35 36 31 30 35 34 36
8 3 4 31 12 24 26 26 26 26 42 51 58 46 49 51 51 51 55 50 38 27 21 14 17 21 20 22 28 31 33 30 28 28 33 41 42 34 31 29 32 35 35 37
6 9 4 3 39 34 28 21 13 21 38 51 55 59 59 56 58 61 57 43 37 30 20 15 20 21 23 21 19 21 23 26 29 35 42 43 34 31 29 25 29 33 38 42
6 8 2 9 40 29 40 40 21 7 28 51 55 64 64 66 65 59 49 47 42 32 21 15 12 11 14 15 16 19 23 27 32 34 32 33 26 29 26 30 33 39 43 47
10 13 17 30 18 30 45 42 23 13 32 55 61 63 68 69 66 60 56 49 39 27 18 10 2 5 10 15 19 23 26 29 30 29 32 33 30 32 33 38 42 37 44 46
33 29 30 16 22 41 40 41 27 16 33 48 61 60 65 67 66 61 54 45 35 24 13 5 3 10 13 18 22 25 26 27 29 32 30 27 29 31 32 38 37 40 47 45
61 52 59 59 56 48 36 37 29 17 24 43 54 67 72 75 71 64 53 45 35 25 18 8 5 12 16 19 22 26 32 33 27 23 18 23 26 27 31 33 39 45 34 21
68 67 71 72 63 50 35 29 28 20 26 45 59 72 76 72 68 62 56 49 38 28 18 9 6 10 13 18 21 21 23 23 24 22 16 21 22 23 26 33 32 17 11 5
58 60 57 53 44 38 34 28 25 23 20 41 60 72 69 69 67 63 56 42 31 24 16 9 7 13 20 24 26 28 30 30 28 22 20 23 21 24 28 15 10 6 5 6
67 51 48 47 36 27 26 25 21 20 19 31 56 70 70 71 75 67 54 44 36 27 20 11 10 16 23 27 31 34 34 33 34 32 23 23 22 23 21 10 7 13 19 21
57 68 52 42 37 30 26 24 19 13 17 26 36 60 67 69 76 65 54 42 33 30 19 14 12 16 25 32 36 36 37 37 34 29 29 27 23 22 22 13 25 28 26 27
46 53 50 34 30 26 27 28 23 16 12 21 34 41 56 73 71 62 49 35 31 24 20 15 17 21 29 32 35 38 40 39 36 30 32 32 30 24 23 30 35 32 27 28
40 46 38 32 29 20 21 22 23 23 19 23 32 42 57 67 57 52 41 35 37 31 21 17 20 25 32 34 34 37 37 27 25 29 33 32 29 30 30 36 33 28 27 29
39 39 37 31 22 19 18 18 24 24 22 29 33 37 40 52 57 49 35 29 26 26 20 19 20 23 29 35 38 34 23 19 22 29 34 26 29 33 40 41 39 38 37 34
38 36 31 22 13 12 15 11 6 6 17 24 33 34 38 54 53 52 38 26 27 24 20 21 17 18 27 30 32 20 19 19 18 23 27 26 26 30 45 47 42 44 40 31
26 21 15 13 15 13 12 33 23 18 18 24 30 37 48 44 33 31 28 24 15 19 20 18 12 15 20 17 15 5 4 11 8 10 18 19 22 29 54 56 49 49 41 28
25 14 13 22 28 26 19 15 15 15 13 14 17 18 15 13 18 22 25 23 23 27 22 18 14 7 12 11 12 17 8 6 4 7 16 24 33 52 61 59 59 55 47 33
29 31 28 21 15 13 12 18 19 15 16 14 11 11 12 17 16 15 14 19 26 27 25 27 19 9 16 24 26 27 34 32 22 8 12 35 55 52 39 42 42 31 39 41
32 29 27 23 12 8 12 13 6 5 8 4 4 6 11 17 21 20 18 17 19 23 24 32 30 24 21 27 36 37 43 41 40 38 37 39 41 37 31 31 31 35 51 46
Wind_Direction_850mb
244 231 171 183 175 168 172 163 154 228 206 239 238 195 191 192 177 184 193 204 201 208 211 222 229 232 236 235 238 239 232 236 250 255 253 248 258 262 259 254 253 255 250 249
278 206 193 185 190 159 150 135 131 141 249 196 186 165 171 181 185 199 199 195 193 208 204 193 201 229 239 241 239 240 246 256 264 262 265 260 264 287 260 254 263 254 254 255
259 319 141 34 187 181 175 170 149 158 225 168 156 173 191 183 189 198 201 199 192 185 167 153 169 190 210 231 240 250 250 262 261 266 269 273 270 279 272 272 263 257 253 255
24 347 272 245 120 181 179 187 200 246 199 197 193 191 197 196 193 201 199 194 184 178 165 164 196 200 197 210 232 249 258 260 266 270 273 276 274 271 273 274 279 262 253 255
168 309 295 308 170 153 164 236 200 218 189 144 139 155 199 203 202 199 196 194 190 181 172 167 167 162 166 179 188 225 250 254 264 272 278 279 284 282 288 271 276 264 257 254
144 142 247 245 295 171 99 272 225 183 196 147 139 144 227 204 203 205 204 200 192 181 179 175 170 180 195 261 274 302 243 291 317 309 293 285 286 283 285 269 272 274 263 253
171 129 281 247 221 102 117 230 193 199 190 167 160 193 218 194 197 202 204 201 193 188 185 179 186 212 247 287 311 313 224 259 306 308 308 293 297 294 281 276 278 274 270 262
117 151 230 10 48 166 265 252 199 169 187 188 191 191 195 185 192 194 199 193 190 185 178 182 234 258 276 282 285 260 254 265 273 291 307 302 310 301 285 280 280 278 273 268
199 194 129 314 245 12 356 294 272 207 192 199 195 189 174 181 186 190 194 184 179 182 187 229 254 269 270 277 265 260 257 262 264 279 291 299 307 310 291 282 283 284 281 279
22 313 18 55 44 18 8 328 279 250 211 197 204 194 178 170 175 178 172 176 179 186 204 228 263 280 270 256 257 260 263 260 268 282 291 295 296 293 295 280 281 280 282 279
290 286 156 150 12 5 5 9 306 239 218 201 195 179 172 171 168 167 170 176 185 193 204 247 275 273 268 267 257 251 252 262 276 288 294 295 289 283 276 285 279 285 288 287
270 295 40 296 352 14 1 357 355 205 207 195 187 177 178 172 171 173 178 181 187 195 212 244 260 271 268 265 258 253 259 269 282 291 293 297 296 281 272 267 275 281 284 286
263 305 309 321 334 4 350 344 341 246 208 192 186 186 181 176 178 182 181 184 192 204 221 223 249 312 285 270 267 271 277 279 285 290 292 291 292 286 280 280 284 287 292 290
268 279 289 288 314 314 329 334 327 286 214 206 191 184 187 183 182 185 188 191 197 209 201 200 343 328 312 294 287 286 285 282 286 289 293 283 291 287 284 288 294 290 295 295
261 262 270 286 296 301 306 322 313 298 221 208 201 186 193 186 189 192 191 194 198 204 212 217 316 328 318 307 298 295 289 283 285 292 296 292 284 283 289 289 291 296 301 300
261 260 262 270 275 286 286 304 304 292 231 217 203 197 195 196 196 192 195 198 203 211 206 215 288 318 325 319 308 304 304 310 295 291 291 293 287 286 290 294 294 291 298 289
251 259 262 259 259 271 270 287 295 288 248 222 215 204 201 201 197 195 199 198 199 206 209 228 299 323 328 322 313 305 297 287 290 287 294 292 285 286 304 293 272 252 203 171
246 251 255 258 254 267 267 272 282 274 267 239 220 208 204 201 201 203 199 196 203 211 216 235 286 313 324 324 315 306 299 291 277 267 264 277 272 282 302 275 208 160 143 134
231 235 244 252 244 268 241 240 246 261 260 252 230 215 208 207 206 204 197 202 215 218 227 249 275 304 319 320 314 306 294 286 274 263 259 254 256 266 269 196 159 155 145 136
230 222 229 240 243 212 211 233 246 251 284 258 223 218 216 207 200 199 200 206 221 222 234 263 281 305 317 321 319 310 299 283 261 244 245 246 249 252 221 173 164 157 151 145
201 200 217 204 215 237 242 238 249 268 278 241 222 221 213 204 197 200 199 218 220 224 240 264 282 310 325 329 323 315 300 284 238 231 233 238 247 236 206 177 174 168 157 150
183 189 195 210 238 252 245 244 263 270 248 230 204 208 206 203 199 197 211 235 228 236 242 263 283 314 328 326 325 313 293 250 237 238 237 236 236 223 194 179 169 161 153 146
198 198 210 223 266 283 276 291 223 194 178 173 184 183 187 205 203 209 217 231 234 228 245 263 286 323 332 332 337 320 262 253 253 228 234 236 240 213 192 178 175 167 163 160
193 180 189 237 257 275 281 146 190 162 147 151 159 168 183 189 205 226 242 231 238 220 242 246 273 318 338 351 9 1 253 234 247 232 214 222 195 218 182 180 175 162 162 167
109 158 176 169 154 157 158 158 144 148 148 164 180 189 208 234 244 240 234 232 229 226 230 234 242 308 356 23 45 43 66 99 158 214 206 206 201 179 177 177 172 169 161 157
105 105 115 128 139 154 174 176 177 182 185 177 177 190 212 222 223 210 222 236 235 232 227 217 205 153 109 94 80 72 77 75 73 106 180 192 170 157 159 172 176 190 166 160
89 88 95 99 107 98 74 72 85 200 192 164 121 227 266 268 264 265 252 243 238 242 235 214 199 173 144 114 104 101 96 89 87 108 122 142 137 126 128 162 180 177 177 186